CZ-2C R/B - Orbit

View from above orbital plane
View from above orbital plane
View from above satellite
View from above satellite

Ground track
Ground track

The orbit data is extracted from the following two-line orbital elements,

1 28480U 04046B   13138.11397953  .00000133  00000-0  66618-4 0   652
2 28480 098.0549 320.5594 0141902 311.3864 155.8811 14.25115020441818
Epoch (UTC): 18 May 2013 02:44:07
Eccentricity: 0.0141902
inclination: 98.0549°
perigee height: 706 km
apogee height: 910 km
right ascension of ascending node: 320.5594°
argument of perigee: 311.3864°
revolutions per day: 14.25115020
mean anomaly at epoch: 155.8811°
orbit number at epoch: 44181

The dashed part of the orbit path shows where the satellite is in the earth's shadow,  

Developed and maintained by Chris Peat, Heavens-Above GmbH. Please read the updated FAQ before sending e-mail. Imprint. DLR